星链-11327 (STARLINK-11327)

导读 | 豆包AI

STARLINK-11327是美国SpaceX公司星链(Starlink)卫星互联网项目的卫星,于2024年10月30日发射升空。星链项目计划在近地轨道部署数万颗卫星,为全球偏远地区提供高速低延迟互联网服务。 STARLINK-11327入轨后,将和其他星链卫星共同完成全球网络星座组网,进一步拓展星链的覆盖范围,也体现了SpaceX在商业航天领域的高频次发射能力,推动全球卫星互联网发展进程。

基本信息
目录编号:
61695
目录名称:
STARLINK-11327
国际标识:
2024-195J
轨道中心:
EARTH
卫星名称:
星链-11327
卫星全名:
星链-11327 (STARLINK-11327)
卫星状态:
在轨 (已飞行501 天)
发射日期:
2024-10-30 UTC
国别 :
美国 (US)
星等 :
--
轨道信息
数据来源 国际轨道数据
星历时间: 2026-03-15T02:35:24+0800
15小时前
查看轨道信息
半长轴: 6737.868km
偏心率: 0.0001116
轨道倾角: 53.160°
近地点辐角 170.796°
升交点赤经 1.089°
平近点角 189.307°
近地点: 358.979km
远地点: 360.483km
周期: 91.737分钟
每日圈数: 15.697088
详细信息
固有亮度:
5
最大亮度:
2.5
卫星平台:
Starlink V1.0
覆盖范围:
全球
运营商:
太空探索技术公司
运营商所在国:
美国
制造商(研发单位):
太空探索技术公司
制造商所在国:
美国
使用方式:
暂无
卫星简介
Starlink 计划是 SpaceX 推出的全球卫星互联网项目,通过发射低轨道卫星,为全球尤其是偏远地区提供高速、低延迟的互联网服务。自 2019 年起,Starlink 已部署数千颗卫星,旨在缩小全球数字鸿沟,推动互联网普及。该项目还为军事、航空等行业提供通信支持,带来广泛经济效益。
2D轨道图
3D轨道图
轨道高度分析图
轨道倾角分析图
轨道综合分析图
查看轨道综合分析图